TimeCST,TemperatureF,Dew PointF,Humidity,Sea Level PressureIn,VisibilityMPH,Wind Direction,Wind SpeedMPH,Gust SpeedMPH,PrecipitationIn,Events,Conditions,WindDirDegrees,DateUTC
12:55 AM,63.5,63.5,100,29.97,10.0,South,11.5,20.7,N/A,,Overcast,190,2013-01-12 06:55:00
1:01 AM,64.4,64.4,100,29.97,10.0,SSW,12.7,20.7,N/A,,Mostly Cloudy,200,2013-01-12 07:01:00
1:07 AM,64.4,64.4,100,29.97,10.0,SSW,11.5,-,N/A,,Mostly Cloudy,200,2013-01-12 07:07:00
1:13 AM,64.4,64.4,100,29.97,10.0,South,13.8,-,N/A,,Overcast,190,2013-01-12 07:13:00
1:55 AM,64.2,64.2,100,29.97,10.0,South,11.5,-,N/A,,Overcast,190,2013-01-12 07:55:00
2:19 AM,64.4,64.4,100,29.97,10.0,South,11.5,-,N/A,,Scattered Clouds,190,2013-01-12 08:19:00
2:55 AM,64.9,64.9,100,29.96,10.0,SSW,12.7,-,N/A,,Clear,200,2013-01-12 08:55:00
3:55 AM,64.4,64.4,100,29.96,10.0,SSW,8.1,-,N/A,,Scattered Clouds,200,2013-01-12 09:55:00
4:01 AM,64.4,64.4,100,29.96,10.0,SSW,10.4,-,N/A,,Mostly Cloudy,200,2013-01-12 10:01:00
4:36 AM,64.4,64.4,100,29.96,10.0,SSW,8.1,-,N/A,,Overcast,200,2013-01-12 10:36:00
4:55 AM,64.9,64.9,100,29.96,10.0,South,4.6,-,N/A,,Overcast,190,2013-01-12 10:55:00
5:42 AM,64.4,64.4,100,29.98,10.0,South,3.5,-,N/A,,Light Drizzle,180,2013-01-12 11:42:00
5:52 AM,64.4,64.4,100,29.98,10.0,Calm,Calm,-,N/A,,Overcast,0,2013-01-12 11:52:00
5:55 AM,63.7,63.7,100,29.98,10.0,Calm,Calm,-,0.00,,Overcast,0,2013-01-12 11:55:00
6:49 AM,64.4,64.4,100,29.99,10.0,SSE,5.8,-,N/A,,Mostly Cloudy,150,2013-01-12 12:49:00
6:55 AM,63.7,63.7,100,29.99,10.0,SSE,5.8,-,N/A,,Mostly Cloudy,150,2013-01-12 12:55:00
7:29 AM,64.4,64.4,100,30.00,10.0,SSE,5.8,-,N/A,,Overcast,160,2013-01-12 13:29:00
7:43 AM,64.4,64.4,100,30.00,10.0,SSE,5.8,-,N/A,,Overcast,150,2013-01-12 13:43:00
7:55 AM,64.2,64.2,100,30.00,10.0,SSE,4.6,-,N/A,,Overcast,150,2013-01-12 13:55:00
8:55 AM,64.9,64.9,100,30.00,10.0,SE,5.8,-,N/A,,Overcast,140,2013-01-12 14:55:00
9:16 AM,64.4,64.4,100,30.00,10.0,SSE,8.1,-,N/A,,Overcast,150,2013-01-12 15:16:00
9:34 AM,66.2,66.2,100,29.99,10.0,SE,5.8,-,N/A,,Scattered Clouds,140,2013-01-12 15:34:00
9:39 AM,66.2,66.2,100,29.99,10.0,SSE,3.5,-,N/A,,Mostly Cloudy,150,2013-01-12 15:39:00
9:54 AM,66.2,66.2,100,29.99,10.0,SSE,5.8,-,N/A,,Mostly Cloudy,160,2013-01-12 15:54:00
9:55 AM,66.9,66.9,100,29.99,10.0,SSE,4.6,-,N/A,,Mostly Cloudy,150,2013-01-12 15:55:00
10:55 AM,67.3,67.3,100,29.98,10.0,SE,4.6,-,N/A,,Overcast,140,2013-01-12 16:55:00
11:11 AM,68.0,68.0,100,29.98,10.0,SSE,5.8,-,N/A,,Light Drizzle,150,2013-01-12 17:11:00
11:27 AM,68.0,68.0,100,29.97,10.0,SSE,5.8,-,N/A,,Overcast,160,2013-01-12 17:27:00
11:55 AM,67.8,67.8,100,29.95,10.0,SSE,8.1,-,0.00,,Overcast,160,2013-01-12 17:55:00
12:12 PM,68.0,68.0,100,29.94,10.0,SSE,6.9,-,N/A,,Overcast,150,2013-01-12 18:12:00
12:55 PM,68.2,68.2,100,29.92,10.0,South,10.4,-,N/A,,Overcast,170,2013-01-12 18:55:00
1:55 PM,68.4,66.7,95,29.89,10.0,SSE,10.4,-,N/A,,Mostly Cloudy,160,2013-01-12 19:55:00
1:58 PM,68.0,66.2,94,29.89,10.0,South,11.5,-,N/A,,Overcast,170,2013-01-12 19:58:00
2:10 PM,68.0,66.2,94,29.89,10.0,South,11.5,-,N/A,,Mostly Cloudy,170,2013-01-12 20:10:00
2:25 PM,69.8,66.2,88,29.90,10.0,South,13.8,18.4,N/A,,Mostly Cloudy,180,2013-01-12 20:25:00
2:31 PM,69.8,66.2,88,29.89,10.0,South,13.8,18.4,N/A,,Mostly Cloudy,170,2013-01-12 20:31:00
2:55 PM,69.1,65.8,89,29.88,10.0,SSE,12.7,-,N/A,,Partly Cloudy,160,2013-01-12 20:55:00
3:27 PM,68.0,66.2,94,29.88,10.0,South,12.7,19.6,N/A,,Mostly Cloudy,170,2013-01-12 21:27:00
3:55 PM,68.5,65.8,91,29.87,10.0,South,13.8,-,N/A,,Overcast,170,2013-01-12 21:55:00
4:55 PM,68.4,65.8,92,29.86,10.0,SSE,11.5,-,N/A,,Overcast,160,2013-01-12 22:55:00
5:21 PM,68.0,66.2,94,29.86,10.0,South,10.4,-,N/A,,Overcast,170,2013-01-12 23:21:00
5:55 PM,67.8,66.2,95,29.85,10.0,SSE,9.2,-,N/A,,Mostly Cloudy,160,2013-01-12 23:55:00
6:05 PM,68.0,66.2,94,29.85,10.0,South,8.1,-,N/A,,Mostly Cloudy,170,2013-01-13 00:05:00
6:27 PM,68.0,66.2,94,29.84,10.0,SSE,10.4,-,N/A,,Mostly Cloudy,160,2013-01-13 00:27:00
6:40 PM,68.0,66.2,94,29.84,10.0,SSE,9.2,-,N/A,,Mostly Cloudy,160,2013-01-13 00:40:00
6:55 PM,67.8,66.4,95,29.83,10.0,SSE,12.7,-,N/A,,Mostly Cloudy,150,2013-01-13 00:55:00
7:07 PM,68.0,66.2,94,29.83,10.0,South,9.2,-,N/A,,Scattered Clouds,170,2013-01-13 01:07:00
7:55 PM,68.5,65.8,91,29.83,10.0,South,10.4,-,N/A,,Overcast,170,2013-01-13 01:55:00
8:10 PM,68.0,66.2,94,29.83,10.0,South,9.2,-,N/A,,Overcast,170,2013-01-13 02:10:00
8:55 PM,69.4,64.2,83,29.81,10.0,SSE,11.5,21.9,N/A,,Overcast,160,2013-01-13 02:55:00
9:55 PM,69.4,63.5,81,29.79,10.0,SSE,12.7,19.6,N/A,,Overcast,160,2013-01-13 03:55:00
10:46 PM,69.8,64.4,83,29.80,10.0,South,18.4,31.1,N/A,,Light Drizzle,180,2013-01-13 04:46:00
10:55 PM,69.3,63.7,82,29.79,10.0,South,18.4,26.5,0.00,,Overcast,170,2013-01-13 04:55:00
11:36 PM,69.8,64.4,83,29.79,10.0,South,16.1,28.8,N/A,,Light Drizzle,190,2013-01-13 05:36:00
11:55 PM,68.2,64.4,88,29.79,10.0,South,15.0,24.2,0.00,,Light Drizzle,190,2013-01-13 05:55:00
11:57 PM,68.0,64.4,88,29.78,10.0,South,13.8,24.2,N/A,,Overcast,180,2013-01-13 05:57:00